Terminal Aerodrome Forecast
Issued by NWS Riverton, WY

Home | Current Version | Previous Version | Text Only | Print | Product List | Glossary On
Versions: 1 2 3 4 5 6 7 8 9 10 11 12 13 14 15 16 17 18 19 20 21 22
000
FTUS45 KRIW 210500
TAFRIW
TAF
KRIW 210538Z 2106/2206 VRB05KT P6SM VCFG SCT100 BKN200
     FM211700 24007KT P6SM BKN100 WS020/27035KT
     FM220100 30018G28KT P6SM VCSH BKN070=

USA.gov is the U.S. government's official web portal to all federal, state and local government web resources and services.